CW1172 Weather Reports


Display with metric or nautical units.
time (UTC)temp
F
wind
direction
speed
MPH
gust
MPH
rain 1hr
in
rain 24hr
in
rain mn
in
humidity
%
barometer
mb
20260505051510 41 315 0.0 0.0 0.00 0.00 0.00 58 1009.0
20260505041504 40 304 0.0 0.0 0.00 0.00 0.00 63 1008.5
20260505040001 40 298 0.0 0.0 0.00 0.00 0.00 66 1008.4
20260505034601 41 298 0.0 0.0 0.00 0.00 0.00 64 1008.3
20260505033100 41 360 0.0 0.0 0.00 0.00 0.00 64 1008.3
20260505031601 42 329 0.0 0.0 0.00 0.00 0.00 66 1008.2
20260505030059 43 360 0.0 0.0 0.00 0.00 0.00 64 1008.1
20260505024555 43 311 0.0 0.0 0.00 0.00 0.00 65 1007.9
20260505023052 44 264 0.0 0.0 0.00 0.00 0.00 67 1007.9
20260505021549 44 294 0.0 0.0 0.00 0.00 0.00 68 1007.7
20260505020051 44 294 0.0 0.0 0.00 0.00 0.00 68 1007.7
20260505014602 45 307 0.0 0.0 0.00 0.00 0.00 69 1007.7
20260505013047 45 322 0.0 0.0 0.00 0.00 0.00 69 1007.6
20260505011550 45 309 0.0 0.0 0.00 0.00 0.00 74 1007.6
20260505010043 45 360 0.0 0.0 0.00 0.00 0.00 79 1007.5
20260505004544 46 332 0.0 0.0 0.00 0.00 0.00 83 1007.5
20260505003042 46 273 0.0 0.0 0.00 0.00 0.00 83 1007.4
20260505001544 47 242 0.0 0.0 0.00 0.00 0.00 83 1007.2
20260505000042 47 261 0.0 0.0 0.00 0.00 0.00 83 1007.3
20260504234540 47 284 0.0 0.0 0.00 0.00 0.00 82 1007.2
20260504233041 47 360 0.0 0.0 0.00 0.00 0.00 82 1007.2
20260504231540 47 247 0.0 0.0 0.00 0.00 0.00 82 1007.2
20260504230040 47 237 0.0 0.0 0.00 0.00 0.00 81 1007.2
20260504224541 47 216 0.0 0.0 0.00 0.00 0.00 80 1007.1
20260504223035 47 226 0.0 0.0 0.00 0.00 0.00 80 1007.0
20260504221534 47 262 0.0 0.0 0.00 0.00 0.00 80 1007.0
20260504220033 48 360 0.0 0.0 0.00 0.00 0.00 80 1007.0
20260504214532 48 260 0.0 0.0 0.00 0.00 0.00 80 1007.0
20260504213031 48 225 0.0 0.0 0.00 0.00 0.00 80 1007.0
20260504211533 48 244 0.0 0.0 0.00 0.00 0.00 79 1006.9
20260504210039 48 252 0.0 0.0 0.00 0.00 0.00 79 1007.0
20260504204544 48 360 0.0 0.0 0.00 0.00 0.00 80 1006.9
20260504203031 48 360 0.0 0.0 0.00 0.00 0.00 81 1006.9
20260504201530 48 206 0.0 0.0 0.00 0.00 0.00 82 1006.9
20260504200030 48 236 0.0 0.0 0.00 0.00 0.00 83 1007.0
20260504194530 48 218 0.0 0.0 0.00 0.00 0.00 83 1006.9
20260504193030 48 196 0.0 0.0 0.00 0.00 0.00 82 1006.9
20260504191531 48 180 0.0 0.0 0.00 0.00 0.00 82 1007.0
20260504190028 49 205 0.0 0.0 0.00 0.00 0.00 81 1006.8
20260504184532 49 245 0.0 0.0 0.00 0.00 0.00 79 1007.0
20260504183031 50 223 0.0 0.0 0.00 0.00 0.00 78 1006.9
20260504181531 50 232 0.0 0.0 0.00 0.00 0.00 77 1006.8
20260504180032 51 360 0.0 0.0 0.00 0.00 0.00 76 1006.8
20260504174530 51 256 0.0 0.0 0.00 0.00 0.00 75 1006.9
20260504173029 52 250 0.0 0.0 0.00 0.00 0.00 73 1007.1
20260504171529 53 222 0.0 0.0 0.00 0.00 0.00 71 1007.1
20260504081600 54 273 0.0 0.0 0.00 0.00 0.00 71 1004.9